User: anonymous   Login
Location: Bandys
(35.4750°N, 81.0830°W)
Time: 22:12:20
(UTC-04:00)
Language:

DELTA 2 R/B (1) - Orbit

View from above orbital plane
View from above orbital plane
View from above satellite
View from above satellite

Ground track
Ground track

The orbit data is extracted from the following two-line orbital elements,

1 27665U 03005C   18170.60448847 +.00000028 +00000-0 +44876-4 0  9995
2 27665 039.5771 039.3945 0008161 148.1651 230.4757 14.28477530803397
Epoch (UTC): 19 June 2018 14:30:27
Eccentricity: 0.0008161
inclination: 39.5771°
perigee height: 791 km
apogee height: 802 km
right ascension of ascending node: 39.3945°
argument of perigee: 148.1651°
revolutions per day: 14.28477530
mean anomaly at epoch: 230.4757°
orbit number at epoch: 80339

The dashed part of the orbit path shows where the satellite is in the earth's shadow,  

DLR